Regional Weather Roundup
Issued by NWS Jackson, KY

Home | Current Version | Previous Version | Text Only | Print | Product List | Glossary Off
Versions: 1 2 3 4 5 6 7 8 9 10 11 12 13 14 15 16 17 18 19 20 21 22 23 24 25 26 27 28 29 30 31 32 33 34 35 36 37 38 39 40 41 42 43 44 45 46 47 48 49 50

000
ASUS43 KJKL 300810
RWRJKL

EAST KENTUCKY HOURLY WEATHER ROUNDUP
NATIONAL WEATHER SERVICE JACKSON KY
400 AM EDT SAT MAY 30 2015

NOTE: "FAIR" INDICATES FEW OR NO CLOUDS BELOW 12,000 FEET WITH
NO SIGNIFICANT WEATHER AND/OR OBSTRUCTIONS TO VISIBILITY.

* THESE REPORTS ARE NOT UNDER NWS QUALITY CONTROL AND MAY NOT
  REPORT WEATHER SUCH AS PRECIPITATION AND FOG.

KYZ079-080-083-085-087-088-110-112-115-119-120-300900
...EASTERN KENTUCKY...

CITY           SKY/WX    TMP DP  RH WIND       PRES   REMARKS
JACKSON        PTCLDY    67  62  84 CALM      30.14S
LONDON         CLOUDY    68  62  81 CALM      30.13F
SOMERSET*      PTCLDY    68  63  83 S3        30.13S
MONTICELLO*    MOCLDY    69  67  93 S3        30.14S
MIDDLESBORO*   CLOUDY    65  64  98 CALM      30.15F
HARLAN APT*    CLOUDY    63  63 100 CALM      30.17S VSB 3/4
HAZARD APT*    SUNNY     66  64  94 CALM      30.14
BLACK MTN*       N/A     59  57  94 S3          N/A
PIKEVILLE APT* CLOUDY    70  63  78 S3        30.15S
BIG SANDY*     CLOUDY    67  66  96 CALM      30.14S
MOREHEAD APT*  PTSUNNY   66  66 100 S5        30.13S
$$

KYZ035-036-041-042-044-050-067-078-099-300900
...CENTRAL KENTUCKY...

CITY           SKY/WX    TMP DP  RH WIND       PRES   REMARKS
MT STERLING*   MOCLDY    68  66  94 SW6       30.12S
FLEMING/MASON* CLEAR     68  66  94 S5        30.11S
DANVILLE*      CLEAR     64  63  94 SW7       30.11F
RICHMOND*      CLOUDY    72  63  73 S6        30.11S
LEXINGTON      MOCLDY    69  64  84 S7        30.09F
FRANKFORT      CLOUDY    70  64  81 S6        30.07S
$$

KYZ091>093-OHZ055-061-077-WVZ005-015-034-035-042-300900
...SOUTHERN OHIO/WEST VIRGINIA...

CITY           SKY/WX    TMP DP  RH WIND       PRES   REMARKS
COVINGTON      PTCLDY    69  65  86 S7        30.06F
COLUMBUS       CLOUDY    72  65  78 S6        30.05F
DAYTON         PTCLDY    72  66  81 S10       30.05F
WILMINGTON     CLEAR     69  64  84 S9        30.06F
HUNTINGTON     PTCLDY    67  65  93 S7        30.11S
CHARLESTON     PTCLDY    64  63  96 CALM      30.12F FOG
PINEVILLE*     PTCLDY    61  61 100 MISG      30.23F FOG
BECKLEY        MOCLDY    64  59  83 SE7       30.22F
BLUEFIELD      MOCLDY    68  58  70 NW3       30.24F
$$

VAZ002-007-008-TNZ017-027-036-066-071-300900
...SOUTHWEST VIRGINIA/EAST TENNESSEE...

CITY           SKY/WX    TMP DP  RH WIND       PRES   REMARKS
WISE*          PTCLDY    63  61  94 CALM      30.22F
JONESVILLE*    FOG       63  63 100 CALM      30.18F VSB 1/2
ABINGDON*      CLEAR     63  62  99 CALM      30.21S
BRISTOL        PTCLDY    61  60  97 CALM      30.17F
KNOXVILLE      PTCLDY    66  63  90 CALM      30.13S
OAK RIDGE      MOCLDY    70  65  84 CALM      30.15S
CROSSVILLE     MOCLDY    69  62  78 VRB3      30.17S
NASHVILLE      PTCLDY    69  64  84 S6        30.08S
$$

...KEY TO REMARKS...
VSB - VISIBILITY IN MILES
WCI - WIND CHILL INDEX
HX  - HEAT INDEX

$$


USA.gov is the U.S. government's official web portal to all federal, state and local government web resources and services.